Powrót do katalogu

STARLINK-2509

AktywnyŁącznośćVLEO
NORAD 48318·PAYLOAD·🇺🇸 United States

Wystrzelony Apr 29, 2021 z Cape Canaveral Space Force Station

Loading…

Następne Przeloty (najbliższe 24 godziny)

TLE

ŚwieżeSource: CelesTrak SupGP

Epoka: Sep 15, 2026, 02:20 UTC

1 48318C 21036AU  26258.09770833  .00028791  00000+0  92483-3 0  2589
2 48318  53.1575 300.4006 0001131  97.8987  52.7130 15.31723019    10

Śledź STARLINK-2509 w czasie rzeczywistym z AllMySat

Download on the App Store